Wetterdaten: Samstag, 13.12.2014
Datum Zeit Temp. A. Feuchte A. Luftdruck Regen Wind Richtung Richtung Sonnenschein ET UV Solar Taupunkt Windchill Windben Empfang
13.12.2014 00:00 3,5 C 74 % 1010,0 hPa 0,0 l/m 0,0 km/h (0 Bft) W-SW 252 0 min 0,000 mm 0,0 UV-I 0 W/m -0,7 C 3,5 C 0,0 km/h (0 Bft) 0,00 %
13.12.2014 00:15 3,6 C 73 % 1009,9 hPa 0,0 l/m 0,0 km/h (0 Bft) S 187 0 min 0,000 mm 0,0 UV-I 0 W/m -0,8 C 3,6 C 0,0 km/h (0 Bft) 0,00 %
13.12.2014 00:30 2,9 C 75 % 1009,9 hPa 0,0 l/m 4,3 km/h (1 Bft) O 95 0 min 0,000 mm 0,0 UV-I 0 W/m -1,1 C 2,9 C 7,9 km/h (2 Bft) 0,00 %
13.12.2014 00:45 2,8 C 75 % 1009,7 hPa 0,0 l/m 0,0 km/h (0 Bft) S 174 0 min 0,000 mm 0,0 UV-I 0 W/m -1,2 C 2,8 C 0,0 km/h (0 Bft) 0,00 %
13.12.2014 01:00 2,4 C 72 % 1009,5 hPa 0,0 l/m 1,4 km/h (1 Bft) O 100 0 min 0,000 mm 0,0 UV-I 0 W/m -2,1 C 2,4 C 4,0 km/h (1 Bft) 0,00 %
13.12.2014 01:15 2,2 C 72 % 1009,8 hPa 0,0 l/m 0,0 km/h (0 Bft) S 188 0 min 0,000 mm 0,0 UV-I 0 W/m -2,3 C 2,2 C 0,0 km/h (0 Bft) 0,00 %
13.12.2014 01:30 1,6 C 75 % 1009,8 hPa 0,0 l/m 0,0 km/h (0 Bft) S 172 0 min 0,000 mm 0,0 UV-I 0 W/m -2,3 C 1,6 C 0,0 km/h (0 Bft) 0,00 %
13.12.2014 01:45 1,1 C 77 % 1009,4 hPa 0,0 l/m 0,0 km/h (0 Bft) S 183 0 min 0,000 mm 0,0 UV-I 0 W/m -2,5 C 1,1 C 0,0 km/h (0 Bft) 0,00 %
13.12.2014 02:00 1,2 C 77 % 1009,6 hPa 0,0 l/m 0,0 km/h (0 Bft) NW 313 0 min 0,000 mm 0,0 UV-I 0 W/m -2,4 C 1,2 C 0,0 km/h (0 Bft) 0,00 %
13.12.2014 02:15 1,3 C 77 % 1010,1 hPa 0,0 l/m 0,0 km/h (0 Bft) W-SW 247 0 min 0,000 mm 0,0 UV-I 0 W/m -2,3 C 1,3 C 0,0 km/h (0 Bft) 0,00 %
13.12.2014 02:30 1,1 C 76 % 1010,3 hPa 0,0 l/m 0,0 km/h (0 Bft) O-SO 107 0 min 0,000 mm 0,0 UV-I 0 W/m -2,6 C 1,1 C 0,0 km/h (0 Bft) 0,00 %
13.12.2014 02:45 1,0 C 76 % 1010,3 hPa 0,0 l/m 0,0 km/h (0 Bft) SW 233 0 min 0,000 mm 0,0 UV-I 0 W/m -2,7 C 1,0 C 0,0 km/h (0 Bft) 0,00 %
13.12.2014 03:00 0,9 C 78 % 1011,0 hPa 0,0 l/m 0,0 km/h (0 Bft) W-SW 254 0 min 0,000 mm 0,0 UV-I 0 W/m -2,5 C 0,9 C 0,0 km/h (0 Bft) 0,00 %
13.12.2014 03:15 1,1 C 77 % 1011,7 hPa 0,0 l/m 0,0 km/h (0 Bft) SW 221 0 min 0,000 mm 0,0 UV-I 0 W/m -2,5 C 1,1 C 0,0 km/h (0 Bft) 0,00 %
13.12.2014 03:30 1,1 C 77 % 1011,7 hPa 0,0 l/m 0,0 km/h (0 Bft) SO 140 0 min 0,000 mm 0,0 UV-I 0 W/m -2,5 C 1,1 C 0,0 km/h (0 Bft) 0,00 %
13.12.2014 03:45 0,9 C 77 % 1012,2 hPa 0,0 l/m 0,0 km/h (0 Bft) SW 214 0 min 0,000 mm 0,0 UV-I 0 W/m -2,7 C 0,9 C 0,0 km/h (0 Bft) 0,00 %
13.12.2014 04:00 0,9 C 78 % 1012,1 hPa 0,0 l/m 0,0 km/h (0 Bft) S 181 0 min 0,000 mm 0,0 UV-I 0 W/m -2,5 C 0,9 C 0,0 km/h (0 Bft) 0,00 %
13.12.2014 04:15 1,1 C 77 % 1012,2 hPa 0,0 l/m 0,0 km/h (0 Bft) N-NW 347 0 min 0,000 mm 0,0 UV-I 0 W/m -2,5 C 1,1 C 0,0 km/h (0 Bft) 0,00 %
13.12.2014 04:30 1,2 C 77 % 1011,9 hPa 0,0 l/m 0,0 km/h (0 Bft) W-SW 255 0 min 0,000 mm 0,0 UV-I 0 W/m -2,4 C 1,2 C 0,0 km/h (0 Bft) 0,00 %
13.12.2014 04:45 1,0 C 76 % 1011,8 hPa 0,0 l/m 0,0 km/h (0 Bft) SW 217 0 min 0,000 mm 0,0 UV-I 0 W/m -2,7 C 1,0 C 0,0 km/h (0 Bft) 0,00 %
13.12.2014 05:00 1,0 C 76 % 1011,8 hPa 0,0 l/m 0,4 km/h (0 Bft) W-SW 255 0 min 0,000 mm 0,0 UV-I 0 W/m -2,7 C 1,0 C 4,0 km/h (1 Bft) 0,00 %
13.12.2014 05:15 1,1 C 75 % 1011,8 hPa 0,0 l/m 0,0 km/h (0 Bft) W-SW 255 0 min 0,000 mm 0,0 UV-I 0 W/m -2,8 C 1,1 C 0,0 km/h (0 Bft) 0,00 %
13.12.2014 05:30 1,0 C 74 % 1012,1 hPa 0,0 l/m 0,0 km/h (0 Bft) SW 225 0 min 0,000 mm 0,0 UV-I 0 W/m -3,1 C 1,0 C 0,0 km/h (0 Bft) 0,00 %
13.12.2014 05:45 0,8 C 75 % 1012,1 hPa 0,0 l/m 0,0 km/h (0 Bft) SW 225 0 min 0,000 mm 0,0 UV-I 0 W/m -3,1 C 0,8 C 0,0 km/h (0 Bft) 0,00 %
13.12.2014 06:00 0,4 C 77 % 1012,4 hPa 0,0 l/m 0,0 km/h (0 Bft) SW 227 0 min 0,000 mm 0,0 UV-I 0 W/m -3,1 C 0,4 C 0,0 km/h (0 Bft) 0,00 %
13.12.2014 06:15 0,2 C 77 % 1012,5 hPa 0,0 l/m 0,0 km/h (0 Bft) O 101 0 min 0,000 mm 0,0 UV-I 0 W/m -3,3 C 0,2 C 0,0 km/h (0 Bft) 0,00 %
13.12.2014 06:30 0,6 C 76 % 1013,0 hPa 0,0 l/m 0,4 km/h (0 Bft) NO 46 0 min 0,000 mm 0,0 UV-I 0 W/m -3,1 C 0,6 C 4,0 km/h (1 Bft) 0,00 %
13.12.2014 06:45 0,3 C 79 % 1012,8 hPa 0,0 l/m 2,2 km/h (1 Bft) SO 127 0 min 0,000 mm 0,0 UV-I 0 W/m -2,9 C 0,3 C 4,0 km/h (1 Bft) 0,00 %
13.12.2014 07:00 0,4 C 79 % 1012,9 hPa 0,0 l/m 0,0 km/h (0 Bft) SW 218 0 min 0,000 mm 0,0 UV-I 0 W/m -2,8 C 0,4 C 0,0 km/h (0 Bft) 0,00 %
13.12.2014 07:15 0,0 C 79 % 1012,9 hPa 0,0 l/m 0,0 km/h (0 Bft) S-SO 165 0 min 0,000 mm 0,0 UV-I 0 W/m -3,2 C 0,0 C 0,0 km/h (0 Bft) 0,00 %
13.12.2014 07:30 -0,2 C 80 % 1013,0 hPa 0,0 l/m 0,0 km/h (0 Bft) S-SW 194 0 min 0,000 mm 0,0 UV-I 0 W/m -3,2 C -0,2 C 0,0 km/h (0 Bft) 0,00 %
13.12.2014 07:45 -0,3 C 80 % 1013,2 hPa 0,0 l/m 0,0 km/h (0 Bft) S-SW 196 0 min 0,000 mm 0,0 UV-I 0 W/m -3,3 C -0,3 C 0,0 km/h (0 Bft) 0,00 %
13.12.2014 08:00 -0,4 C 80 % 1013,2 hPa 0,0 l/m 0,0 km/h (0 Bft) S-SW 211 0 min 0,000 mm 0,0 UV-I 2 W/m -3,4 C -0,4 C 0,0 km/h (0 Bft) 0,00 %
13.12.2014 08:15 -0,5 C 80 % 1013,5 hPa 0,0 l/m 0,0 km/h (0 Bft) S 183 0 min 0,000 mm 0,0 UV-I 18 W/m -3,5 C -0,5 C 0,0 km/h (0 Bft) 0,00 %
13.12.2014 08:30 -0,2 C 80 % 1013,7 hPa 0,0 l/m 0,0 km/h (0 Bft) W-SW 256 0 min 0,000 mm 0,0 UV-I 37 W/m -3,2 C -0,2 C 0,0 km/h (0 Bft) 0,00 %
13.12.2014 08:45 0,3 C 79 % 1013,5 hPa 0,0 l/m 0,0 km/h (0 Bft) S-SW 206 0 min 0,000 mm 1,0 UV-I 50 W/m -2,9 C 0,3 C 0,0 km/h (0 Bft) 0,00 %
13.12.2014 09:00 0,9 C 76 % 1013,4 hPa 0,0 l/m 0,0 km/h (0 Bft) S-SW 207 0 min 0,000 mm 1,0 UV-I 67 W/m -2,8 C 0,9 C 0,0 km/h (0 Bft) 0,00 %
13.12.2014 09:15 1,5 C 73 % 1013,4 hPa 0,0 l/m 0,0 km/h (0 Bft) S 176 0 min 0,000 mm 1,0 UV-I 74 W/m -2,8 C 1,5 C 0,0 km/h (0 Bft) 0,00 %
13.12.2014 09:30 2,3 C 75 % 1013,4 hPa 0,0 l/m 0,0 km/h (0 Bft) SW 231 0 min 0,000 mm 1,0 UV-I 76 W/m -1,7 C 2,3 C 0,0 km/h (0 Bft) 0,00 %
13.12.2014 09:45 2,2 C 72 % 1013,4 hPa 0,0 l/m 0,0 km/h (0 Bft) N-NW 337 0 min 0,000 mm 1,0 UV-I 84 W/m -2,3 C 2,2 C 0,0 km/h (0 Bft) 0,00 %
13.12.2014 10:00 2,6 C 74 % 1013,8 hPa 0,0 l/m 0,0 km/h (0 Bft) S 184 15 min 0,000 mm 1,0 UV-I 188 W/m -1,6 C 2,6 C 0,0 km/h (0 Bft) 0,00 %
13.12.2014 10:15 3,4 C 72 % 1013,5 hPa 0,0 l/m 0,0 km/h (0 Bft) SO 132 15 min 0,000 mm 1,0 UV-I 190 W/m -1,2 C 3,4 C 0,0 km/h (0 Bft) 0,00 %
13.12.2014 10:30 4,0 C 72 % 1013,4 hPa 0,0 l/m 0,7 km/h (0 Bft) O 85 15 min 0,000 mm 1,0 UV-I 195 W/m -0,6 C 4,0 C 4,0 km/h (1 Bft) 0,00 %
13.12.2014 10:45 4,3 C 71 % 1013,2 hPa 0,0 l/m 0,0 km/h (0 Bft) N 355 15 min 0,000 mm 1,0 UV-I 222 W/m -0,5 C 4,3 C 0,0 km/h (0 Bft) 0,00 %
13.12.2014 11:00 4,8 C 71 % 1013,1 hPa 0,0 l/m 0,0 km/h (0 Bft) SO 130 15 min 0,000 mm 1,0 UV-I 211 W/m -0,0 C 4,8 C 0,0 km/h (0 Bft) 0,00 %
13.12.2014 11:15 4,9 C 70 % 1013,1 hPa 0,0 l/m 0,0 km/h (0 Bft) N-NW 343 15 min 0,000 mm 1,0 UV-I 200 W/m -0,1 C 4,9 C 0,0 km/h (0 Bft) 0,00 %
13.12.2014 11:30 5,3 C 67 % 1013,0 hPa 0,0 l/m 0,0 km/h (0 Bft) S 177 15 min 0,000 mm 1,0 UV-I 199 W/m -0,3 C 5,3 C 0,0 km/h (0 Bft) 0,00 %
13.12.2014 11:45 5,6 C 64 % 1013,0 hPa 0,0 l/m 0,0 km/h (0 Bft) S-SW 194 15 min 0,000 mm 1,0 UV-I 234 W/m -0,7 C 5,6 C 0,0 km/h (0 Bft) 0,00 %
13.12.2014 12:00 6,0 C 64 % 1012,7 hPa 0,0 l/m 0,0 km/h (0 Bft) S-SW 199 15 min 0,000 mm 1,0 UV-I 221 W/m -0,3 C 6,0 C 0,0 km/h (0 Bft) 0,00 %
13.12.2014 12:15 6,2 C 65 % 1012,7 hPa 0,0 l/m 0,0 km/h (0 Bft) SW 217 15 min 0,000 mm 1,0 UV-I 222 W/m 0,1 C 6,2 C 0,0 km/h (0 Bft) 0,00 %
13.12.2014 12:30 6,6 C 64 % 1012,7 hPa 0,0 l/m 0,0 km/h (0 Bft) S-SO 168 15 min 0,000 mm 1,0 UV-I 199 W/m 0,3 C 6,6 C 0,0 km/h (0 Bft) 0,00 %
13.12.2014 12:45 6,8 C 62 % 1012,7 hPa 0,0 l/m 0,0 km/h (0 Bft) W-SW 256 15 min 0,000 mm 1,0 UV-I 245 W/m 0,0 C 6,8 C 0,0 km/h (0 Bft) 0,00 %
13.12.2014 13:00 7,0 C 63 % 1012,7 hPa 0,0 l/m 0,0 km/h (0 Bft) S-SW 203 15 min 0,000 mm 1,0 UV-I 239 W/m 0,4 C 7,0 C 0,0 km/h (0 Bft) 0,00 %
13.12.2014 13:15 7,4 C 60 % 1012,7 hPa 0,0 l/m 0,0 km/h (0 Bft) S-SW 213 15 min 0,000 mm 1,0 UV-I 211 W/m 0,2 C 7,4 C 0,0 km/h (0 Bft) 0,00 %
13.12.2014 13:30 7,6 C 59 % 1012,5 hPa 0,0 l/m 0,0 km/h (0 Bft) W-SW 251 0 min 0,000 mm 1,0 UV-I 122 W/m 0,1 C 7,6 C 0,0 km/h (0 Bft) 0,00 %
13.12.2014 13:45 7,4 C 60 % 1012,9 hPa 0,0 l/m 0,0 km/h (0 Bft) SW 224 0 min 0,000 mm 1,0 UV-I 108 W/m 0,2 C 7,4 C 0,0 km/h (0 Bft) 0,00 %
13.12.2014 14:00 7,5 C 61 % 1012,6 hPa 0,0 l/m 0,0 km/h (0 Bft) SW 215 0 min 0,000 mm 1,0 UV-I 96 W/m 0,5 C 7,5 C 0,0 km/h (0 Bft) 0,00 %
13.12.2014 14:15 7,3 C 60 % 1012,7 hPa 0,0 l/m 0,0 km/h (0 Bft) S-SW 204 0 min 0,000 mm 1,0 UV-I 86 W/m 0,1 C 7,3 C 0,0 km/h (0 Bft) 0,00 %
13.12.2014 14:30 7,0 C 62 % 1013,0 hPa 0,0 l/m 0,0 km/h (0 Bft) W-SW 253 0 min 0,000 mm 1,0 UV-I 79 W/m 0,2 C 7,0 C 0,0 km/h (0 Bft) 0,00 %
13.12.2014 14:45 6,7 C 64 % 1013,0 hPa 0,0 l/m 0,0 km/h (0 Bft) S-SW 203 0 min 0,000 mm 1,0 UV-I 70 W/m 0,4 C 6,7 C 0,0 km/h (0 Bft) 0,00 %
13.12.2014 15:00 6,4 C 68 % 1012,9 hPa 0,0 l/m 0,0 km/h (0 Bft) S 174 0 min 0,000 mm 1,0 UV-I 49 W/m 0,9 C 6,4 C 0,0 km/h (0 Bft) 0,00 %
13.12.2014 15:15 6,0 C 70 % 1013,0 hPa 0,0 l/m 0,0 km/h (0 Bft) O-SO 107 0 min 0,000 mm 0,0 UV-I 39 W/m 1,0 C 6,0 C 0,0 km/h (0 Bft) 0,00 %
13.12.2014 15:30 5,5 C 71 % 1013,3 hPa 0,0 l/m 0,0 km/h (0 Bft) S 182 0 min 0,000 mm 0,0 UV-I 23 W/m 0,7 C 5,5 C 0,0 km/h (0 Bft) 0,00 %
13.12.2014 15:45 5,2 C 73 % 1013,5 hPa 0,0 l/m 0,0 km/h (0 Bft) S 174 0 min 0,000 mm 0,0 UV-I 8 W/m 0,8 C 5,2 C 0,0 km/h (0 Bft) 0,00 %
13.12.2014 16:00 4,9 C 72 % 1013,7 hPa 0,0 l/m 0,0 km/h (0 Bft) S-SW 207 0 min 0,000 mm 0,0 UV-I 0 W/m 0,3 C 4,9 C 0,0 km/h (0 Bft) 0,00 %
13.12.2014 16:15 4,7 C 74 % 1013,9 hPa 0,0 l/m 0,0 km/h (0 Bft) S 175 0 min 0,000 mm 0,0 UV-I 0 W/m 0,5 C 4,7 C 0,0 km/h (0 Bft) 0,00 %
13.12.2014 16:30 4,2 C 76 % 1014,1 hPa 0,0 l/m 0,0 km/h (0 Bft) SW 219 0 min 0,000 mm 0,0 UV-I 0 W/m 0,4 C 4,2 C 0,0 km/h (0 Bft) 0,00 %
13.12.2014 16:45 3,8 C 76 % 1014,4 hPa 0,0 l/m 0,0 km/h (0 Bft) S-SW 199 0 min 0,000 mm 0,0 UV-I 0 W/m -0,0 C 3,8 C 0,0 km/h (0 Bft) 0,00 %
13.12.2014 17:00 3,4 C 78 % 1014,4 hPa 0,0 l/m 0,0 km/h (0 Bft) S 172 0 min 0,000 mm 0,0 UV-I 0 W/m -0,1 C 3,4 C 0,0 km/h (0 Bft) 0,00 %
13.12.2014 17:15 3,3 C 78 % 1014,4 hPa 0,0 l/m 0,0 km/h (0 Bft) SW 227 0 min 0,000 mm 0,0 UV-I 0 W/m -0,2 C 3,3 C 0,0 km/h (0 Bft) 0,00 %
13.12.2014 17:30 3,0 C 79 % 1014,8 hPa 0,0 l/m 0,0 km/h (0 Bft) SW 232 0 min 0,000 mm 0,0 UV-I 0 W/m -0,3 C 3,0 C 0,0 km/h (0 Bft) 0,00 %
13.12.2014 17:45 2,6 C 80 % 1015,0 hPa 0,0 l/m 0,0 km/h (0 Bft) SW 229 0 min 0,000 mm 0,0 UV-I 0 W/m -0,5 C 2,6 C 0,0 km/h (0 Bft) 0,00 %
13.12.2014 18:00 2,5 C 76 % 1015,3 hPa 0,0 l/m 0,0 km/h (0 Bft) S 173 0 min 0,000 mm 0,0 UV-I 0 W/m -1,3 C 2,5 C 0,0 km/h (0 Bft) 0,00 %
13.12.2014 18:15 2,3 C 82 % 1015,3 hPa 0,0 l/m 0,0 km/h (0 Bft) SW 224 0 min 0,000 mm 0,0 UV-I 0 W/m -0,4 C 2,3 C 0,0 km/h (0 Bft) 0,00 %
13.12.2014 18:30 2,3 C 77 % 1015,4 hPa 0,0 l/m 0,0 km/h (0 Bft) S 183 0 min 0,000 mm 0,0 UV-I 0 W/m -1,3 C 2,3 C 0,0 km/h (0 Bft) 0,00 %
13.12.2014 18:45 2,1 C 78 % 1015,7 hPa 0,0 l/m 0,0 km/h (0 Bft) S-SW 208 0 min 0,000 mm 0,0 UV-I 0 W/m -1,3 C 2,1 C 0,0 km/h (0 Bft) 0,00 %
13.12.2014 19:00 1,7 C 78 % 1015,6 hPa 0,0 l/m 0,0 km/h (0 Bft) SW 216 0 min 0,000 mm 0,0 UV-I 0 W/m -1,7 C 1,7 C 0,0 km/h (0 Bft) 0,00 %
13.12.2014 19:15 1,4 C 80 % 1015,9 hPa 0,0 l/m 0,0 km/h (0 Bft) S 172 0 min 0,000 mm 0,0 UV-I 0 W/m -1,7 C 1,4 C 0,0 km/h (0 Bft) 0,00 %
13.12.2014 19:30 1,1 C 80 % 1016,0 hPa 0,0 l/m 0,0 km/h (0 Bft) W-SW 251 0 min 0,000 mm 0,0 UV-I 0 W/m -2,0 C 1,1 C 0,0 km/h (0 Bft) 0,00 %
13.12.2014 19:45 0,8 C 80 % 1016,0 hPa 0,0 l/m 0,0 km/h (0 Bft) S 184 0 min 0,000 mm 0,0 UV-I 0 W/m -2,2 C 0,8 C 0,0 km/h (0 Bft) 0,00 %
13.12.2014 20:00 0,7 C 80 % 1016,1 hPa 0,0 l/m 0,0 km/h (0 Bft) S-SW 202 0 min 0,000 mm 0,0 UV-I 0 W/m -2,3 C 0,7 C 0,0 km/h (0 Bft) 0,00 %
13.12.2014 20:15 1,1 C 81 % 1016,0 hPa 0,0 l/m 0,0 km/h (0 Bft) W-SW 253 0 min 0,000 mm 0,0 UV-I 0 W/m -1,8 C 1,1 C 0,0 km/h (0 Bft) 0,00 %
13.12.2014 20:30 1,3 C 81 % 1016,0 hPa 0,0 l/m 0,0 km/h (0 Bft) SW 227 0 min 0,000 mm 0,0 UV-I 0 W/m -1,6 C 1,3 C 0,0 km/h (0 Bft) 0,00 %
13.12.2014 20:45 0,7 C 81 % 1016,0 hPa 0,0 l/m 0,0 km/h (0 Bft) W-SW 250 0 min 0,000 mm 0,0 UV-I 0 W/m -2,2 C 0,7 C 0,0 km/h (0 Bft) 0,00 %
13.12.2014 21:00 0,2 C 81 % 1016,3 hPa 0,0 l/m 0,0 km/h (0 Bft) S 176 0 min 0,000 mm 0,0 UV-I 0 W/m -2,7 C 0,2 C 0,0 km/h (0 Bft) 0,00 %
13.12.2014 21:15 0,6 C 81 % 1016,2 hPa 0,0 l/m 0,0 km/h (0 Bft) S 174 0 min 0,000 mm 0,0 UV-I 0 W/m -2,3 C 0,6 C 0,0 km/h (0 Bft) 0,00 %
13.12.2014 21:30 0,7 C 82 % 1016,1 hPa 0,0 l/m 0,0 km/h (0 Bft) W 263 0 min 0,000 mm 0,0 UV-I 0 W/m -2,0 C 0,7 C 0,0 km/h (0 Bft) 0,00 %
13.12.2014 21:45 -0,2 C 81 % 1016,5 hPa 0,0 l/m 0,0 km/h (0 Bft) SW 214 0 min 0,000 mm 0,0 UV-I 0 W/m -3,1 C -0,2 C 0,0 km/h (0 Bft) 0,00 %
13.12.2014 22:00 0,3 C 82 % 1016,4 hPa 0,0 l/m 0,0 km/h (0 Bft) S-SW 196 0 min 0,000 mm 0,0 UV-I 0 W/m -2,4 C 0,3 C 0,0 km/h (0 Bft) 0,00 %
13.12.2014 22:15 0,0 C 82 % 1016,4 hPa 0,0 l/m 0,0 km/h (0 Bft) S 179 0 min 0,000 mm 0,0 UV-I 0 W/m -2,7 C 0,0 C 0,0 km/h (0 Bft) 0,00 %
13.12.2014 22:30 0,4 C 82 % 1016,5 hPa 0,0 l/m 0,0 km/h (0 Bft) SW 223 0 min 0,000 mm 0,0 UV-I 0 W/m -2,3 C 0,4 C 0,0 km/h (0 Bft) 0,00 %
13.12.2014 22:45 0,5 C 81 % 1016,4 hPa 0,0 l/m 0,0 km/h (0 Bft) SW 221 0 min 0,000 mm 0,0 UV-I 0 W/m -2,4 C 0,5 C 0,0 km/h (0 Bft) 0,00 %
13.12.2014 23:00 0,5 C 82 % 1016,1 hPa 0,0 l/m 0,0 km/h (0 Bft) S 190 0 min 0,000 mm 0,0 UV-I 0 W/m -2,2 C 0,5 C 0,0 km/h (0 Bft) 0,00 %
13.12.2014 23:15 0,3 C 82 % 1016,5 hPa 0,0 l/m 0,0 km/h (0 Bft) S-SW 194 0 min 0,000 mm 0,0 UV-I 0 W/m -2,4 C 0,3 C 0,0 km/h (0 Bft) 0,00 %
13.12.2014 23:30 0,3 C 82 % 1016,3 hPa 0,0 l/m 0,0 km/h (0 Bft) S-SW 202 0 min 0,000 mm 0,0 UV-I 0 W/m -2,4 C 0,3 C 0,0 km/h (0 Bft) 0,00 %
13.12.2014 23:45 -0,1 C 82 % 1016,5 hPa 0,0 l/m 0,0 km/h (0 Bft) SW 217 0 min 0,000 mm 0,0 UV-I 0 W/m -2,8 C -0,1 C 0,0 km/h (0 Bft) 0,00 %
_ Min-Zeit 08:15 13:30 01:45 - 00:00 - - - - - - 08:15 08:15 00:00 00:00
Minimum _ -0,5 C 59 % 1009,4 hPa - 0,0 km/h (0 Bft) - - - - - - -3,5 C -0,5 C 0,0 km/h (0 Bft) 0,00 %
_ Max-Zeit 13:30 18:15 21:45 00:00 00:30 - - 10:00 00:00 08:45 12:45 15:15 13:30 00:30 00:00
Maximum _ 7,6 C 82 % 1016,5 hPa 0,0 l/m 4,3 km/h
O (1 Bft)
- - 15 min 0,000 mm 1,0 UV-I 245 W/m 1,0 C 7,6 C 7,9 km/h
O (2 Bft)
0,00 %
Durchschnitt _ 2,5 C 75 % 1013,4 hPa #0,0 l/m 0,1 km/h (0 Bft) O - #3:30 h #0,000 mm 1,0 UV-I 127 W/m -1,6 C 2,5 C 0,3 km/h (0 Bft) 0,00 %